EN

Hourly Weather Dzierzkow

Today, 30 October, Friday

Time Temperature Precipitation Wind Pressure Humidity
00:00 +5°C° 0 mm 3 mps 743 mmHg 82%
01:00 +5°C° 0 mm 3 mps 744 mmHg 83%
02:00 +5°C° 0 mm 3 mps 743 mmHg 83%
03:00 +5°C° 0 mm 3 mps 743 mmHg 83%
04:00 +5°C° 0 mm 3 mps 743 mmHg 83%
05:00 +5°C° 0.3 mm 3 mps 743 mmHg 85%
06:00 +7°C° 0.3 mm 3 mps 742 mmHg 86%
07:00 +7°C° 0.3 mm 3 mps 742 mmHg 87%
08:00 +7°C° 1.4 mm 3 mps 742 mmHg 89%
09:00 +8°C° 1.4 mm 3 mps 742 mmHg 91%
10:00 +8°C° 1.4 mm 3 mps 741 mmHg 92%
11:00 +8°C° 1.2 mm 4 mps 741 mmHg 92%
12:00 +10°C° 1.2 mm 4 mps 741 mmHg 93%
13:00 +9°C° 1.2 mm 5 mps 741 mmHg 93%
14:00 +10°C° 0.6 mm 5 mps 741 mmHg 92%
15:00 +10°C° 0.6 mm 6 mps 741 mmHg 92%
16:00 +10°C° 0.6 mm 6 mps 741 mmHg 92%
17:00 +10°C° 0.4 mm 6 mps 741 mmHg 92%
18:00 +10°C° 0.4 mm 6 mps 741 mmHg 92%
19:00 +11°C° 0.4 mm 6 mps 742 mmHg 92%
20:00 +11°C° 0.4 mm 6 mps 742 mmHg 93%
21:00 +11°C° 0.4 mm 6 mps 743 mmHg 93%
22:00 +11°C° 0.4 mm 6 mps 743 mmHg 93%
23:00 +12°C° 0.2 mm 5 mps 743 mmHg 93%

Tomorrow, 31 October, Saturday

Time Temperature Precipitation Wind Pressure Humidity
00:00 +12°C° 0.2 mm 5 mps 744 mmHg 93%
01:00 +12°C° 0.2 mm 5 mps 744 mmHg 94%
02:00 +12°C° 0.3 mm 4 mps 744 mmHg 94%
03:00 +12°C° 0.3 mm 4 mps 744 mmHg 95%
04:00 +12°C° 0.3 mm 3 mps 745 mmHg 96%
05:00 +12°C° 0.1 mm 3 mps 745 mmHg 96%
06:00 +13°C° 0.1 mm 2 mps 745 mmHg 96%
07:00 +12°C° 0.1 mm 2 mps 746 mmHg 97%
08:00 +13°C° 0.1 mm 2 mps 746 mmHg 96%
09:00 +13°C° 0.1 mm 2 mps 746 mmHg 95%
10:00 +13°C° 0.1 mm 2 mps 746 mmHg 95%
11:00 +14°C° 0.1 mm 1 mps 746 mmHg 92%
12:00 +14°C° 0.1 mm 1 mps 746 mmHg 90%
13:00 +14°C° 0.1 mm 1 mps 746 mmHg 87%
14:00 +14°C° 0 mm 1 mps 746 mmHg 88%
15:00 +14°C° 0 mm 1 mps 746 mmHg 89%
16:00 +13°C° 0 mm 0 mps 746 mmHg 89%
17:00 +14°C° 0 mm 1 mps 746 mmHg 90%
18:00 +13°C° 0 mm 1 mps 746 mmHg 90%
19:00 +13°C° 0 mm 2 mps 746 mmHg 90%
20:00 +12°C° 0 mm 2 mps 746 mmHg 91%
21:00 +12°C° 0 mm 2 mps 745 mmHg 92%
22:00 +10°C° 0 mm 3 mps 745 mmHg 93%
23:00 +10°C° 0 mm 3 mps 745 mmHg 93%

Day after tomorrow, 1 November, Sunday

Time Temperature Precipitation Wind Pressure Humidity
00:00 +10°C° 0 mm 3 mps 745 mmHg 93%
01:00 +10°C° 0 mm 3 mps 744 mmHg 93%
02:00 +10°C° 0 mm 3 mps 744 mmHg 92%
03:00 +10°C° 0 mm 3 mps 744 mmHg 92%
04:00 +10°C° 0 mm 3 mps 743 mmHg 92%
05:00 +10°C° 0 mm 3 mps 743 mmHg 91%
06:00 +10°C° 0 mm 3 mps 743 mmHg 91%
07:00 +10°C° 0 mm 3 mps 743 mmHg 91%
08:00 +11°C° 0 mm 3 mps 743 mmHg 87%
09:00 +12°C° 0 mm 3 mps 743 mmHg 83%
10:00 +13°C° 0 mm 3 mps 743 mmHg 80%
11:00 +13°C° 0 mm 3 mps 743 mmHg 80%
12:00 +13°C° 0 mm 3 mps 742 mmHg 80%
13:00 +13°C° 0 mm 4 mps 742 mmHg 80%
14:00 +12°C° 0.3 mm 4 mps 742 mmHg 83%
15:00 +12°C° 0.3 mm 4 mps 741 mmHg 85%
16:00 +12°C° 0.3 mm 4 mps 741 mmHg 88%
17:00 +12°C° 0.2 mm 4 mps 741 mmHg 87%
18:00 +12°C° 0.2 mm 4 mps 741 mmHg 86%
19:00 +12°C° 0.2 mm 4 mps 741 mmHg 85%
20:00 +12°C° 0 mm 4 mps 741 mmHg 85%
21:00 +12°C° 0 mm 4 mps 740 mmHg 85%
22:00 +12°C° 0 mm 4 mps 740 mmHg 85%
23:00 +12°C° 0 mm 4 mps 740 mmHg 85%

2 November, Monday

Time Temperature Precipitation Wind Pressure Humidity
00:00 +12°C° 0 mm 5 mps 739 mmHg 85%
01:00 +13°C° 0 mm 5 mps 739 mmHg 85%
02:00 +13°C° 0.1 mm 6 mps 739 mmHg 84%
03:00 +14°C° 0.1 mm 6 mps 739 mmHg 84%
04:00 +14°C° 0.1 mm 6 mps 738 mmHg 83%
05:00 +14°C° 0.2 mm 6 mps 738 mmHg 84%
06:00 +14°C° 0.2 mm 6 mps 738 mmHg 85%
07:00 +14°C° 0.2 mm 6 mps 738 mmHg 85%
08:00 +15°C° 0.1 mm 6 mps 738 mmHg 83%
09:00 +15°C° 0.1 mm 6 mps 739 mmHg 81%
10:00 +16°C° 0.1 mm 6 mps 739 mmHg 79%
11:00 +16°C° 0 mm 6 mps 739 mmHg 77%
12:00 +17°C° 0 mm 6 mps 739 mmHg 76%
13:00 +17°C° 0 mm 6 mps 739 mmHg 75%
14:00 +17°C° 0 mm 5 mps 739 mmHg 76%
15:00 +16°C° 0 mm 5 mps 739 mmHg 77%
16:00 +16°C° 0 mm 5 mps 739 mmHg 79%
17:00 +16°C° 0 mm 5 mps 739 mmHg 79%
18:00 +15°C° 0 mm 5 mps 739 mmHg 80%
19:00 +15°C° 0 mm 5 mps 739 mmHg 81%
20:00 +15°C° 0 mm 5 mps 739 mmHg 80%
21:00 +15°C° 0 mm 6 mps 739 mmHg 80%
22:00 +15°C° 0 mm 6 mps 739 mmHg 80%
23:00 +15°C° 0 mm 6 mps 740 mmHg 80%

3 November, Tuesday

Time Temperature Precipitation Wind Pressure Humidity
00:00 +15°C° 0 mm 6 mps 740 mmHg 79%
01:00 +15°C° 0 mm 6 mps 740 mmHg 78%
02:00 +15°C° 0 mm 5 mps 740 mmHg 79%
03:00 +15°C° 0 mm 5 mps 740 mmHg 81%
04:00 +14°C° 0 mm 5 mps 741 mmHg 82%
05:00 +14°C° 0 mm 4 mps 741 mmHg 83%
06:00 +13°C° 0 mm 3 mps 742 mmHg 84%
07:00 +13°C° 0 mm 3 mps 743 mmHg 85%
08:00 +13°C° 0 mm 3 mps 743 mmHg 82%
09:00 +13°C° 0 mm 3 mps 744 mmHg 79%
10:00 +14°C° 0 mm 3 mps 744 mmHg 76%
11:00 +14°C° 0 mm 3 mps 744 mmHg 74%
12:00 +15°C° 0 mm 2 mps 744 mmHg 72%
13:00 +14°C° 0 mm 1 mps 744 mmHg 70%
14:00 +14°C° 0 mm 1 mps 744 mmHg 72%
15:00 +14°C° 0 mm 1 mps 744 mmHg 74%
16:00 +13°C° 0 mm 1 mps 744 mmHg 76%
17:00 +13°C° 0 mm 1 mps 744 mmHg 77%
18:00 +13°C° 0 mm 1 mps 744 mmHg 79%
19:00 +13°C° 0 mm 1 mps 744 mmHg 81%
20:00 +13°C° 1 mm 1 mps 744 mmHg 85%
21:00 +13°C° 1 mm 1 mps 744 mmHg 89%
22:00 +12°C° 1 mm 1 mps 744 mmHg 94%
23:00 +12°C° 1.7 mm 1 mps 744 mmHg 94%

4 November, Wednesday

Time Temperature Precipitation Wind Pressure Humidity
00:00 +12°C° 1.7 mm 2 mps 744 mmHg 93%
01:00 +11°C° 1.7 mm 3 mps 744 mmHg 93%
02:00 +11°C° 0.4 mm 3 mps 744 mmHg 89%
03:00 +10°C° 0.4 mm 4 mps 744 mmHg 85%
04:00 +8°C° 0.4 mm 4 mps 745 mmHg 81%
05:00 +8°C° 0 mm 4 mps 745 mmHg 82%
06:00 +7°C° 0 mm 4 mps 745 mmHg 83%
07:00 +7°C° 0 mm 4 mps 746 mmHg 84%
08:00 +7°C° 0 mm 4 mps 746 mmHg 80%
09:00 +8°C° 0 mm 4 mps 747 mmHg 76%
10:00 +10°C° 0 mm 4 mps 747 mmHg 72%
11:00 +10°C° 0 mm 4 mps 747 mmHg 70%
12:00 +11°C° 0 mm 3 mps 747 mmHg 67%
13:00 +11°C° 0 mm 3 mps 747 mmHg 64%
14:00 +10°C° 0 mm 3 mps 748 mmHg 68%
15:00 +10°C° 0 mm 2 mps 748 mmHg 72%
16:00 +9°C° 0 mm 2 mps 748 mmHg 75%
17:00 +9°C° 0 mm 2 mps 748 mmHg 77%
18:00 +8°C° 0 mm 2 mps 749 mmHg 79%
19:00 +8°C° 0 mm 2 mps 749 mmHg 81%
20:00 +7°C° 0 mm 2 mps 750 mmHg 81%
21:00 +7°C° 0 mm 2 mps 750 mmHg 82%
22:00 +7°C° 0 mm 2 mps 751 mmHg 82%
23:00 +7°C° 0 mm 2 mps 751 mmHg 81%
Show more